Location: Stockholm
(59.3330°N, 18.0500°E)
Time: 03:44:57
(UTC+02:00)

NOAA 18 - Pass Details

Date: 03 April 2023
Orbit: 838 x 860 km, 98.9° (Epoch: 31 May)

Event Time Altitude Azimuth Distance (km) Brightness Sun altitude
Exits shadow 00:36:42 - 254° (WSW) 2,574 7.6 -25.5°
Reaches altitude 10° 00:37:08 10° 258° (WSW) 2,504 7.6 -25.5°
Maximum altitude 00:39:22 12° 282° (WNW) 2,341 7.6 -25.5°
Drops below altitude 10° 00:41:36 10° 306° (NW) 2,510 8.1 -25.5°
Sets 00:45:41 0° 335° (NNW) 3,452 9.5 -25.5°
